Flag for U.S.A. Weather past 2 weeks in Glendale, Arizona, U.S.A.

Now
85 °F

Sunny.


Feels Like: 85 °F
Forecast: 86 / 102 °F
Wind: 7 mph from Northeast

Location: Phoenix-Deer Valley Municipal Airport

Current Time: Jul 29, 2015 at 7:25:59 AM

Latest Report: Jul 29, 2015 at 6:53 AM


Visibility: 10 mi

Pressure: 29.88 "Hg

Humidity: 43%

Dew point: 60 °F

Location of GlendaleLocation

Historic Weather in Glendale — Graph

°F

Glendale temperature yesterday

Maximum temperature yesterday: 102 °F (at 3:53 PM)
Minimum temperature yesterday: 87 °F (at 3:53 AM)
Average temperature yesterday: 94 °F

Past Weeks' High & Low Weather Summary

 TemperatureHumidityPressure
High107 °F (Jul 26, 3:53 PM)85% (Jul 19, 1:53 AM)30.01 "Hg (Jul 19, 1:53 AM)
Low75 °F (Jul 18, 10:53 PM)7% (Jul 25, 3:53 PM)29.61 "Hg (Jul 14, 5:53 PM)
Average92 °F29%29.79 "Hg
* Reported Jul 14 5:53 AM — Jul 29 5:53 AM, Glendale, Weather by CustomWeather, © 2015

Note: Actual official high and low records may vary slightly from our data, if they occured in-between our weather recording intervals... More about our weather records

Advertising

Glendale weather history for previous 24 hours

 ConditionsComfort  
Time TempWeatherWind HumidityBarometerVisibility
5:53 AM
Wed, Jul 29
85 °FSunny.No wind42%29.86 "Hg10 mi
4:53 AM85 °FClear.3 mph42%29.85 "Hg10 mi
3:53 AM85 °FClear.5 mph42%29.85 "Hg10 mi
2:53 AM86 °FClear.6 mph42%29.85 "Hg10 mi
1:53 AM87 °FPassing clouds.8 mph39%29.84 "Hg10 mi
12:53 AM87 °FOvercast.9 mph39%29.84 "Hg10 mi
11:53 PM
Tue, Jul 28
88 °FPassing clouds.13 mph39%29.84 "Hg10 mi
10:53 PM89 °FClear.23 mph38%29.82 "Hg10 mi
9:53 PM97 °FPassing clouds.22 mph25%29.77 "Hg9 mi
8:53 PM99 °FClear.7 mph22%29.72 "Hg10 mi
7:53 PM100 °FClear.8 mph21%29.71 "Hg10 mi
6:53 PM101 °FSunny.9 mph20%29.68 "Hg10 mi
5:53 PM101 °FSunny.7 mph19%29.67 "Hg10 mi
4:53 PM102 °FSunny.6 mph19%29.68 "Hg10 mi
3:53 PM102 °FSunny.6 mph17%29.70 "Hg10 mi
2:53 PM101 °FSunny.7 mph17%29.73 "Hg10 mi
1:53 PM99 °FSunny.No wind21%29.77 "Hg10 mi
12:53 PM96 °FSunny.3 mph26%29.80 "Hg10 mi
11:53 AM94 °FSunny.3 mph28%29.81 "Hg10 mi
10:53 AM93 °FSunny.7 mph29%29.82 "Hg10 mi
9:53 AM91 °FSunny.8 mph32%29.83 "Hg10 mi
8:53 AM90 °FSunny.12 mph31%29.83 "Hg10 mi
7:53 AM88 °FSunny.3 mph34%29.83 "Hg10 mi
Weather by CustomWeather, © 2015

See weather overviewHow to use our weather pages